Location: �quirre
(50.4736°N, 2.2351°E)
Time: 21:13:37
(UTC+00:00)

Cosmos 2034 Rocket - Pass Details

Date: 07 August 2020
Orbit: 958 x 1000 km, 82.9° (Epoch: 21 September)

Event Time Altitude Azimuth Distance (km) Brightness Sun altitude
Exits shadow 00:35:49 43° 165° (SSE) 1,355 4.3 -22.6°
Maximum altitude 00:37:58 71° 95° (E) 1,037 4.1 -22.6°
Drops below altitude 10° 00:44:15 10° 13° (NNE) 2,761 7.5 -22.4°
Sets 00:46:48 0° 12° (NNE) 3,719 8.6 -22.3°
